KC1IUC-13 Weather Reports


time (UTC)temp
F
wind
direction
speed
knots
gust
knots
rain 1hr
in
rain 24hr
in
rain mn
in
humidity
%
barometer
mb
20260507015403 59 0 0.0 0.0 0.02 0.19 0.19 94 1003.9
20260507014503 59 0 0.0 0.0 0.00 0.17 0.17 94 1003.9
20260507013603 59 0 0.0 0.0 0.00 0.17 0.17 94 1003.9
20260507012703 59 0 0.0 0.0 0.00 0.17 0.17 94 1004.2
20260507011803 59 0 0.0 0.0 0.00 0.17 0.17 94 1003.9
20260507010903 59 0 0.0 0.0 0.00 0.17 0.17 94 1003.5
20260507010003 59 0 0.0 0.0 0.00 0.17 0.17 93 1003.9
20260507005403 59 0 0.0 0.0 0.00 0.17 0.17 93 1003.9
20260507004503 59 0 0.0 0.0 0.00 0.17 0.17 93 1003.5
20260507003603 59 0 0.0 0.0 0.00 0.17 0.17 93 1003.9
20260507002703 59 0 0.0 0.0 0.00 0.17 0.17 93 1003.5
20260507001803 59 0 0.0 0.0 0.00 0.17 0.17 93 1003.5
20260507000903 59 0 0.0 0.0 0.00 0.17 0.17 93 1003.5
20260507000003 59 0 0.0 0.0 0.00 0.17 0.17 93 1003.5
20260506235403 59 0 0.0 0.0 0.00 0.17 0.17 93 1003.5
20260506234503 59 0 0.0 0.0 0.00 0.17 0.17 93 1003.5
20260506233603 59 0 0.0 0.0 0.00 0.17 0.17 93 1003.9
20260506232703 59 0 0.0 0.0 0.00 0.17 0.17 93 1003.5
20260506231803 59 0 0.0 0.0 0.00 0.17 0.17 92 1003.5
20260506230903 59 199 0.0 0.9 0.00 0.17 0.17 92 1003.2
20260506230003 59 199 0.0 0.9 0.00 0.17 0.17 92 1003.2
20260506225403 59 0 0.0 0.0 0.00 0.17 0.17 92 1003.2
20260506224503 59 0 0.0 0.0 0.00 0.17 0.17 92 1003.2
20260506223603 59 0 0.0 0.0 0.00 0.17 0.17 92 1002.8
20260506222703 59 0 0.0 0.0 0.00 0.17 0.17 92 1003.2
20260506221803 59 0 0.0 0.0 0.00 0.17 0.17 92 1003.2
20260506220903 59 199 0.0 1.7 0.01 0.17 0.17 91 1003.2
20260506220003 59 199 0.0 0.9 0.01 0.17 0.17 91 1003.2
20260506215403 59 199 0.0 1.7 0.01 0.17 0.17 91 1003.2
20260506214503 59 199 0.0 1.7 0.01 0.17 0.17 91 1003.2
20260506213603 59 199 0.0 1.7 0.02 0.17 0.17 91 1003.2
20260506212703 59 199 0.0 1.7 0.02 0.17 0.17 91 1002.8
20260506211803 59 199 0.0 1.7 0.02 0.17 0.17 91 1003.2
20260506210903 59 199 0.0 1.7 0.02 0.16 0.16 90 1002.5
20260506210003 59 199 0.9 1.7 0.03 0.16 0.16 90 1002.5
20260506205403 59 199 0.9 1.7 0.04 0.16 0.16 90 1002.8
20260506204503 59 199 0.9 1.7 0.05 0.16 0.16 90 1002.8
20260506203603 59 199 0.0 1.7 0.05 0.15 0.15 90 1002.8
20260506202703 59 199 0.9 1.7 0.05 0.15 0.15 90 1003.2
20260506201803 59 199 0.9 1.7 0.06 0.15 0.15 89 1003.2
20260506200903 59 199 0.0 0.9 0.06 0.14 0.14 89 1003.2
20260506200003 59 199 0.9 1.7 0.06 0.13 0.13 89 1003.5
20260506195403 59 199 0.9 1.7 0.05 0.12 0.12 89 1003.2
20260506194503 59 200 0.9 1.7 0.04 0.11 0.11 88 1003.5
20260506193603 59 200 0.0 1.7 0.03 0.10 0.10 88 1003.5
20260506192703 59 201 0.9 2.6 0.03 0.10 0.10 88 1003.9
20260506191803 59 202 0.0 2.6 0.02 0.09 0.09 88 1003.5
20260506190903 59 202 0.9 2.6 0.02 0.08 0.08 87 1003.9
20260506190004 59 202 0.0 2.6 0.02 0.07 0.07 87 1003.9
20260506185403 58 199 0.9 3.5 0.02 0.07 0.07 87 1003.9
20260506184503 59 187 1.7 5.2 0.02 0.07 0.07 86 1003.9
20260506183603 59 184 1.7 5.2 0.02 0.07 0.07 86 1003.9
20260506182703 59 197 1.7 2.6 0.03 0.07 0.07 86 1004.2
20260506181803 59 191 1.7 2.6 0.04 0.07 0.07 85 1004.2
20260506180903 59 205 1.7 2.6 0.04 0.06 0.06 85 1004.6
20260506180004 60 193 1.7 3.5 0.04 0.05 0.05 84 1004.2
20260506175403 60 192 1.7 2.6 0.05 0.05 0.05 84 1004.2
20260506174503 60 193 1.7 3.5 0.05 0.05 0.05 83 1004.2
20260506173603 60 196 0.9 2.6 0.05 0.05 0.05 82 1004.2
20260506172703 60 197 1.7 2.6 0.04 0.04 0.04 81 1004.2
20260506171803 61 199 0.9 2.6 0.03 0.03 0.03 80 1004.2
20260506170904 61 200 0.9 2.6 0.02 0.02 0.02 79 1004.6
20260506170004 62 202 0.9 2.6 0.01 0.01 0.01 78 1005.2
20260506165404 63 202 0.9 2.6 0.00 0.00 0.00 78 1005.2
20260506164504 64 202 0.9 3.5 0.00 0.00 0.00 77 1005.2
20260506163604 64 202 0.9 2.6 0.00 0.00 0.00 77 1005.2
20260506162704 65 203 0.9 2.6 0.00 0.00 0.00 76 1005.2
20260506161804 66 187 1.7 3.5 0.00 0.00 0.00 76 1005.2
20260506160904 66 177 1.7 2.6 0.00 0.00 0.00 76 1005.2
20260506160004 67 181 1.7 3.5 0.00 0.00 0.00 77 1005.2
20260506155404 67 182 1.7 3.5 0.00 0.00 0.00 77 1005.6
20260506154504 67 180 1.7 3.5 0.00 0.00 0.00 76 1005.6
20260506153604 68 172 0.9 3.5 0.00 0.00 0.00 77 1005.6
20260506152704 68 192 1.7 5.2 0.00 0.00 0.00 77 1005.9
20260506151804 67 194 1.7 5.2 0.00 0.00 0.00 78 1005.6
20260506150904 67 199 1.7 3.5 0.00 0.00 0.00 78 1005.2
20260506150004 67 179 1.7 5.2 0.00 0.00 0.00 78 1005.6
20260506145404 67 177 1.7 5.2 0.00 0.00 0.00 78 1005.6
20260506144504 67 181 1.7 5.2 0.00 0.00 0.00 79 1005.6
20260506143604 67 177 1.7 3.5 0.00 0.00 0.00 79 1005.9
20260506142704 67 191 1.7 5.2 0.00 0.00 0.00 80 1005.9
20260506141804 66 198 1.7 5.2 0.00 0.00 0.00 80 1005.9
20260506140904 66 193 1.7 5.2 0.00 0.00 0.00 80 1005.9
20260506140004 66 187 1.7 5.2 0.00 0.00 0.00 81 1005.9
20260506135404 66 190 1.7 5.2 0.00 0.00 0.00 81 1005.6
20260506134504 66 188 1.7 5.2 0.00 0.00 0.00 81 1005.9
20260506133604 66 188 1.7 5.2 0.00 0.00 0.00 82 1005.9
20260506132704 65 175 1.7 3.5 0.00 0.00 0.00 83 1005.9
20260506131804 65 174 1.7 2.6 0.00 0.00 0.00 83 1005.9
20260506130904 64 184 1.7 3.5 0.00 0.00 0.00 83 1005.6
20260506130005 64 185 0.9 2.6 0.00 0.00 0.00 84 1005.9
20260506125404 63 209 0.9 2.6 0.00 0.00 0.00 84 1005.9
20260506124504 62 208 0.9 2.6 0.00 0.00 0.00 84 1005.6
20260506123604 62 213 0.9 3.5 0.00 0.00 0.00 84 1005.9
20260506122704 62 209 0.9 6.1 0.00 0.00 0.00 84 1006.3
20260506121804 62 194 0.9 6.1 0.00 0.00 0.00 84 1006.6
20260506120904 62 192 1.7 3.5 0.00 0.00 0.00 85 1006.3
20260506120004 62 190 0.9 2.6 0.00 0.00 0.00 85 1006.3
20260506115404 61 190 0.9 2.6 0.00 0.00 0.00 85 1006.3
20260506114504 60 190 0.9 2.6 0.00 0.00 0.00 85 1005.9
20260506113604 59 189 0.9 1.7 0.00 0.00 0.00 85 1006.3
20260506112704 59 189 0.9 1.7 0.00 0.00 0.00 85 1006.3
20260506111804 59 188 0.9 2.6 0.00 0.00 0.00 85 1006.3
20260506110904 59 188 0.9 2.6 0.00 0.00 0.00 85 1006.3
20260506110004 59 188 0.9 2.6 0.00 0.00 0.00 85 1006.3
20260506105404 58 187 0.0 1.7 0.00 0.00 0.00 85 1006.6
20260506104504 57 187 0.0 1.7 0.00 0.00 0.00 85 1006.3
20260506103604 57 0 0.0 0.0 0.00 0.00 0.00 85 1006.6
20260506102704 56 187 0.0 1.7 0.00 0.00 0.00 85 1006.3
20260506101804 56 0 0.0 0.0 0.00 0.00 0.00 84 1006.3
20260506100904 56 187 0.0 0.9 0.00 0.00 0.00 84 1006.3
20260506100004 55 187 0.0 1.7 0.00 0.00 0.00 84 1006.3
20260506095404 55 187 0.0 0.9 0.00 0.00 0.00 84 1006.3
20260506094504 55 0 0.0 0.0 0.00 0.00 0.00 83 1005.9
20260506093604 55 0 0.0 0.0 0.00 0.00 0.00 83 1006.3
20260506092704 55 0 0.0 0.0 0.00 0.00 0.00 83 1005.9
20260506091804 55 0 0.0 0.0 0.00 0.00 0.00 83 1005.9
20260506090904 55 0 0.0 0.0 0.00 0.00 0.00 82 1006.3
20260506090004 56 0 0.0 0.0 0.00 0.00 0.00 82 1006.3
20260506085404 55 0 0.0 0.0 0.00 0.00 0.00 82 1006.3
20260506084504 56 0 0.0 0.0 0.00 0.00 0.00 81 1006.3
20260506083604 56 187 0.0 1.7 0.00 0.00 0.00 81 1006.6
20260506082704 56 187 0.9 1.7 0.00 0.00 0.00 81 1006.6
20260506081804 56 187 0.0 1.7 0.00 0.00 0.00 81 1006.6
20260506080904 56 0 0.0 0.0 0.00 0.00 0.00 80 1006.6
20260506072704 57 187 0.9 1.7 0.00 0.00 0.00 79 1006.6
20260506071804 57 187 0.9 1.7 0.00 0.00 0.00 78 1006.6
20260506070904 57 0 0.0 0.0 0.00 0.00 0.00 78 1006.6
20260506061804 58 187 0.0 0.9 0.00 0.00 0.00 76 1006.3
20260506060904 58 0 0.0 0.0 0.00 0.00 0.00 75 1006.3
20260506050904 59 187 0.0 0.9 0.00 0.00 0.00 73 1007.3
20260506044504 59 0 0.0 0.0 0.00 0.00 0.00 72 1007.0
20260506043604 60 187 0.0 0.9 0.00 0.00 0.00 72 1007.0
20260506042704 60 187 0.0 0.9 0.00 0.00 0.00 72 1007.0
20260506041804 60 187 0.0 1.7 0.00 0.00 0.00 71 1007.0
20260506040904 60 187 0.9 1.7 0.00 0.00 0.00 71 1007.0
20260506040004 60 187 0.9 1.7 0.00 0.00 0.00 71 1007.0
20260506035404 61 187 0.9 1.7 0.00 0.00 0.00 71 1006.6
20260506034504 61 187 0.9 2.6 0.00 0.00 0.00 70 1007.0
20260506033604 61 187 0.9 1.7 0.00 0.00 0.00 70 1006.6
20260506032704 61 187 0.9 1.7 0.00 0.00 0.00 69 1006.6
20260506031804 61 187 0.0 1.7 0.00 0.00 0.00 69 1007.0
20260506030904 61 187 0.9 1.7 0.00 0.00 0.00 69 1007.0
20260506030004 61 187 0.0 1.7 0.00 0.00 0.00 68 1007.0
20260506025404 61 0 0.0 0.0 0.00 0.00 0.00 68 1007.0
20260506024504 62 0 0.0 0.0 0.00 0.00 0.00 67 1006.6
20260506023604 62 187 0.0 1.7 0.00 0.00 0.00 67 1007.0
20260506022704 62 187 0.9 2.6 0.00 0.00 0.00 67 1007.0
20260506021804 62 187 0.9 1.7 0.00 0.00 0.00 66 1007.0
20260506020904 63 187 0.9 1.7 0.00 0.00 0.00 66 1007.0
20260506020004 63 187 0.0 1.7 0.00 0.00 0.00 66 1006.6